Albion, NE

7:23 PM CDT on March 25, 2017 (GMT -0500)
Albion Municipal

Weather History for KBVN - October, 2011

Change the Weather History Date:

Monday, October 3, 2011

  Actual Average (KOFK) Record (KOFK)
Temperature  
Mean Temperature 62 °F -  
Max Temperature 82 °F 69 °F 96 °F (1938)
Min Temperature 42 °F 43 °F 27 °F (1987)
Degree Days  
Heating Degree Days 3    
Growing Degree Days 12 (Base 50)    
Moisture  
Dew Point 40 °F    
Average Humidity 48    
Maximum Humidity 81    
Minimum Humidity 21    
Precipitation  
Precipitation 0.00 in - - ()
Sea Level Pressure  
Sea Level Pressure 30.10 in    
Wind  
Wind Speed 6 mph (SE)    
Max Wind Speed 21 mph    
Max Gust Speed 29 mph    
Visibility 10 miles    
Events      
Averages and records for this station are not official NWS values.
T = Trace of Precipitation, MM = Missing Value Source: NWS Daily Summary

Daily Weather History Graph

Daily Weather History Graph

Search for Another Location

Airport or City:

Trip Planner

Search our weather history database for the weather conditions in past years. The results will help you decide how hot, cold, wet, or windy it might be!

Date:

Astronomy

Oct. 03, 2011 Rise Set
Actual Time 7:30 AM CDT 7:10 PM CDT
Civil Twilight 7:03 AM CDT 7:38 PM CDT
Nautical Twilight 6:31 AM CDT 8:10 PM CDT
Astronomical Twilight 5:58 AM CDT 8:43 PM CDT
Moon 2:34 PM CDT (10/3) No Moon Set
Length of Visible Light 12h 35m
Length of Day
11h 39m
Waxing Crescent, 45% of the Moon is Illuminated
Oct 3
Waxing Crescent
Oct 3
First Quarter
Oct 11
Full
Oct 19
Last Quarter
Oct 26
New

Hourly Weather History & Observations

Time (CDT) Temp. Windchill Dew Point Humidity Pressure Visibility Wind Dir Wind Speed Gust Speed Precip Events Conditions
12:35 AM 53.6 °F - 37.4 °F 54% 30.12 in 10.0 mi SE 4.6 mph - N/A   Scattered Clouds
12:55 AM 53.6 °F - 37.4 °F 54% 30.12 in 10.0 mi SE 3.5 mph - N/A   Mostly Cloudy
1:15 AM 51.8 °F - 37.4 °F 58% 30.12 in 10.0 mi SE 4.6 mph - N/A   Scattered Clouds
1:35 AM 51.8 °F - 37.4 °F 58% 30.12 in 10.0 mi SE 4.6 mph - N/A   Scattered Clouds
1:55 AM 51.8 °F - 37.4 °F 58% 30.12 in 10.0 mi SE 3.5 mph - N/A   Clear
2:15 AM 51.8 °F - 37.4 °F 58% 30.12 in 10.0 mi ESE 6.9 mph - N/A   Clear
3:15 AM 50.0 °F - 37.4 °F 62% 30.12 in 10.0 mi SE 5.8 mph - N/A   Clear
3:35 AM 46.4 °F 43.5 °F 37.4 °F 71% 30.12 in 10.0 mi SE 5.8 mph - N/A   Clear
3:55 AM 46.4 °F 45.2 °F 37.4 °F 71% 30.11 in 10.0 mi SE 3.5 mph - N/A   Clear
4:15 AM 44.6 °F 43.1 °F 37.4 °F 76% 30.11 in 10.0 mi SE 3.5 mph - N/A   Clear
4:35 AM 44.6 °F 43.1 °F 37.4 °F 76% 30.11 in 10.0 mi SE 3.5 mph - N/A   Clear
4:55 AM 44.6 °F 42.2 °F 35.6 °F 71% 30.11 in 10.0 mi SE 4.6 mph - N/A   Clear
5:15 AM 44.6 °F - 35.6 °F 71% 30.11 in 10.0 mi Calm Calm - N/A   Clear
5:35 AM 44.6 °F - 37.4 °F 76% 30.12 in 10.0 mi Calm Calm - N/A   Clear
5:55 AM 44.6 °F 42.2 °F 37.4 °F 76% 30.12 in 10.0 mi ESE 4.6 mph - N/A   Clear
6:15 AM 44.6 °F - 37.4 °F 76% 30.12 in 10.0 mi Calm Calm - N/A   Clear
6:55 AM 42.8 °F 40.1 °F 35.6 °F 76% 30.11 in 10.0 mi SE 4.6 mph - N/A   Clear
7:15 AM 42.8 °F - 35.6 °F 76% 30.12 in 10.0 mi Calm Calm - N/A   Clear
7:35 AM 42.8 °F - 35.6 °F 76% 30.13 in 10.0 mi Calm Calm - N/A   Clear
7:55 AM 44.6 °F 43.1 °F 37.4 °F 76% 30.12 in 10.0 mi SE 3.5 mph - N/A   Clear
8:15 AM 44.6 °F 43.1 °F 37.4 °F 76% 30.12 in 10.0 mi SSE 3.5 mph - N/A   Clear
8:35 AM 44.6 °F - 39.2 °F 81% 30.13 in 10.0 mi Calm Calm - N/A   Clear
8:55 AM 50.0 °F - 39.2 °F 66% 30.13 in 10.0 mi ESE 5.8 mph - N/A   Clear
9:15 AM 53.6 °F - 41.0 °F 62% 30.13 in 10.0 mi ESE 5.8 mph - N/A   Clear
9:35 AM 55.4 °F - 41.0 °F 58% 30.13 in 10.0 mi SE 4.6 mph - N/A   Clear
9:55 AM 59.0 °F - 42.8 °F 55% 30.13 in 10.0 mi SE 5.8 mph - N/A   Clear
10:15 AM 62.6 °F - 41.0 °F 45% 30.13 in 10.0 mi South 11.5 mph 17.3 mph N/A   Clear
10:35 AM 64.4 °F - 41.0 °F 42% 30.13 in 10.0 mi South 9.2 mph - N/A   Clear
10:55 AM 66.2 °F - 41.0 °F 40% 30.13 in 10.0 mi SSE 8.1 mph - N/A   Clear
11:15 AM 68.0 °F - 41.0 °F 37% 30.13 in 10.0 mi South 11.5 mph - N/A   Clear
11:55 AM 71.6 °F - 41.0 °F 33% 30.12 in 10.0 mi SSE 9.2 mph - N/A   Clear
12:15 PM 73.4 °F - 41.0 °F 31% 30.12 in 10.0 mi SSE 6.9 mph - N/A   Clear
12:35 PM 73.4 °F - 41.0 °F 31% 30.11 in 10.0 mi SSE 11.5 mph - N/A   Clear
1:15 PM 77.0 °F - 39.2 °F 26% 30.10 in 10.0 mi SSE 13.8 mph 18.4 mph N/A   Clear
1:35 PM 78.8 °F - 39.2 °F 24% 30.09 in 10.0 mi SSE 12.7 mph 23.0 mph N/A   Clear
1:55 PM 78.8 °F - 41.0 °F 26% 30.08 in 10.0 mi SSE 17.3 mph 21.9 mph N/A   Clear
2:15 PM 80.6 °F - 39.2 °F 23% 30.07 in 10.0 mi SSE 20.7 mph 24.2 mph N/A   Clear
2:35 PM 80.6 °F - 39.2 °F 23% 30.07 in 10.0 mi SE 18.4 mph 28.8 mph N/A   Clear
2:55 PM 82.4 °F - 39.2 °F 21% 30.06 in 10.0 mi SSE 18.4 mph 24.2 mph N/A   Clear
3:15 PM 82.4 °F - 39.2 °F 21% 30.06 in 10.0 mi SSE 20.7 mph 25.3 mph N/A   Clear
3:35 PM 82.4 °F - 41.0 °F 23% 30.06 in 10.0 mi SSE 17.3 mph - N/A   Clear
3:55 PM 82.4 °F - 41.0 °F 23% 30.06 in 10.0 mi SSE 16.1 mph 21.9 mph N/A   Clear
4:15 PM 82.4 °F - 41.0 °F 23% 30.06 in 10.0 mi SSE 15.0 mph 23.0 mph N/A   Clear
4:55 PM 82.4 °F - 41.0 °F 23% 30.05 in 10.0 mi SSE 13.8 mph 23.0 mph N/A   Clear
5:15 PM 80.6 °F - 41.0 °F 24% 30.05 in 10.0 mi SSE 16.1 mph 21.9 mph N/A   Clear
5:35 PM 80.6 °F - 41.0 °F 24% 30.05 in 10.0 mi SSE 16.1 mph 20.7 mph N/A   Clear
5:55 PM 80.6 °F - 41.0 °F 24% 30.05 in 10.0 mi SSE 11.5 mph 19.6 mph N/A   Clear
6:15 PM 80.6 °F - 41.0 °F 24% 30.05 in 10.0 mi SSE 12.7 mph 18.4 mph N/A   Clear
6:35 PM 78.8 °F - 41.0 °F 26% 30.06 in 10.0 mi SSE 11.5 mph 17.3 mph N/A   Clear
6:55 PM 77.0 °F - 41.0 °F 28% 30.06 in 10.0 mi SSE 9.2 mph - N/A   Clear
7:15 PM 75.2 °F - 41.0 °F 29% 30.06 in 10.0 mi SSE 8.1 mph - N/A   Clear
7:35 PM 73.4 °F - 42.8 °F 33% 30.06 in 10.0 mi SE 6.9 mph - N/A   Clear
7:55 PM 69.8 °F - 42.8 °F 38% 30.06 in 10.0 mi SE 5.8 mph - N/A   Clear
8:15 PM 68.0 °F - 42.8 °F 40% 30.06 in 10.0 mi SE 6.9 mph - N/A   Clear
8:35 PM 68.0 °F - 44.6 °F 43% 30.06 in 10.0 mi SE 5.8 mph - N/A   Clear
8:55 PM 66.2 °F - 44.6 °F 46% 30.06 in 10.0 mi SE 5.8 mph - N/A   Clear
9:15 PM 60.8 °F - 44.6 °F 55% 30.07 in 10.0 mi SE 4.6 mph - N/A   Clear
9:35 PM 59.0 °F - 44.6 °F 59% 30.07 in 10.0 mi SE 3.5 mph - N/A   Clear
9:55 PM 59.0 °F - 44.6 °F 59% 30.08 in 10.0 mi Calm Calm - N/A   Clear
10:15 PM 60.8 °F - 44.6 °F 55% 30.08 in 10.0 mi SE 3.5 mph - N/A   Clear
10:35 PM 59.0 °F - 44.6 °F 59% 30.08 in 10.0 mi Calm Calm - N/A   Clear
10:55 PM 59.0 °F - 44.6 °F 59% 30.08 in 10.0 mi SSE 4.6 mph - N/A   Clear
11:15 PM 55.4 °F - 44.6 °F 67% 30.08 in 10.0 mi SE 6.9 mph - N/A   Clear
11:35 PM 59.0 °F - 44.6 °F 59% 30.08 in 10.0 mi SE 5.8 mph - N/A   Clear
11:55 PM 59.0 °F - 44.6 °F 59% 30.07 in 10.0 mi SE 5.8 mph - N/A   Clear